Location: Lanoux
(43.1180°N, 1.4255°E)
Time: 15:21:36
(UTC+00:00)

ARIANE 6 FM1 Upper Stage - Pass Details

Date: 21 February 2026
Orbit: 523 x 607 km, 62.0° (Epoch: 6 March)

Event Time Altitude Azimuth Distance (km) Brightness Sun altitude
Rises 19:16:54 0° 302° (WNW) 2,657 7.2 -19.6°
Reaches altitude 10° 19:20:04 10° 275° (W) 1,768 6.4 -20.2°
Maximum altitude 19:21:58 13° 246° (WSW) 1,574 5.8 -20.5°
Drops below altitude 10° 19:23:53 10° 217° (SW) 1,774 5.6 -20.9°
Sets 19:27:04 0° 190° (S) 2,672 6.2 -21.5°
